Saginaw Browne, MI

12:29 AM EDT on April 30, 2017 (GMT -0400)
Saginaw County-Browne

Weather History for KHYX - January, 2013

Change the Weather History Date:

Monday, January 7, 2013

  Actual Average (KMBS) Record (KMBS)
Temperature  
Mean Temperature 32 °F -  
Max Temperature 35 °F 28 °F 59 °F (2008)
Min Temperature 30 °F 16 °F -11 °F (2014)
Degree Days  
Heating Degree Days 32    
Moisture  
Dew Point 25 °F    
Average Humidity 76    
Maximum Humidity 86    
Minimum Humidity 60    
Precipitation  
Precipitation 0.00 in - - ()
Sea Level Pressure  
Sea Level Pressure 30.19 in    
Wind  
Wind Speed 9 mph (SSW)    
Max Wind Speed 28 mph    
Max Gust Speed 34 mph    
Visibility 10 miles    
Events      
Averages and records for this station are not official NWS values.
T = Trace of Precipitation, MM = Missing Value Source: NWS Daily Summary

Daily Weather History Graph

Daily Weather History Graph

Search for Another Location

Airport or City:

Trip Planner

Search our weather history database for the weather conditions in past years. The results will help you decide how hot, cold, wet, or windy it might be!

Date:

Astronomy

Jan. 07, 2013 Rise Set
Actual Time 8:07 AM EST 5:16 PM EST
Civil Twilight 7:35 AM EST 5:48 PM EST
Nautical Twilight 6:59 AM EST 6:24 PM EST
Astronomical Twilight 6:25 AM EST 6:58 PM EST
Moon 3:28 AM EST (1/7) 1:27 PM EST (1/7)
Length of Visible Light 10h 12m
Length of Day
9h 08m
Waning Crescent, 23% of the Moon is Illuminated
Jan 7
Waning Crescent
Jan 11
New
Jan 18
First Quarter
Jan 26
Full
Feb 3
Last Quarter

Hourly Weather History & Observations

Time (EST) Temp. Windchill Dew Point Humidity Pressure Visibility Wind Dir Wind Speed Gust Speed Precip Events Conditions
12:33 AM 30.2 °F - 26.6 °F 86% 30.25 in 10.0 mi Calm Calm - N/A   Overcast
12:53 AM 30.2 °F - 26.6 °F 86% 30.26 in 10.0 mi Calm Calm - N/A   Overcast
1:13 AM 30.2 °F - 26.6 °F 86% 30.26 in 10.0 mi Calm Calm - N/A   Overcast
1:33 AM 30.2 °F - 26.6 °F 86% 30.27 in 10.0 mi Calm Calm - N/A   Overcast
1:53 AM 30.2 °F - 26.6 °F 86% 30.28 in 10.0 mi Calm Calm - N/A   Overcast
2:13 AM 30.2 °F - 26.6 °F 86% 30.28 in 10.0 mi Calm Calm - N/A   Overcast
2:33 AM 30.2 °F - 26.6 °F 86% 30.29 in 10.0 mi Calm Calm - N/A   Overcast
2:53 AM 30.2 °F 26.7 °F 26.6 °F 86% 30.29 in 10.0 mi SW 3.5 mph - N/A   Overcast
3:14 AM 30.2 °F 26.7 °F 26.6 °F 86% 30.29 in 10.0 mi South 3.5 mph - N/A   Overcast
3:34 AM 30.2 °F 25.4 °F 26.6 °F 86% 30.28 in 10.0 mi South 4.6 mph - N/A   Overcast
3:54 AM 30.2 °F 24.3 °F 26.6 °F 86% 30.28 in 10.0 mi South 5.8 mph - N/A   Overcast
4:14 AM 30.2 °F 24.3 °F 26.6 °F 86% 30.29 in 10.0 mi SSW 5.8 mph - N/A   Overcast
4:34 AM 30.2 °F 24.3 °F 26.6 °F 86% 30.28 in 10.0 mi South 5.8 mph - N/A   Overcast
4:54 AM 30.2 °F 23.4 °F 26.6 °F 86% 30.29 in 10.0 mi SW 6.9 mph - N/A   Overcast
5:14 AM 30.2 °F 24.3 °F 26.6 °F 86% 30.29 in 10.0 mi SW 5.8 mph - N/A   Overcast
5:34 AM 30.2 °F 25.4 °F 26.6 °F 86% 30.29 in 10.0 mi SW 4.6 mph - N/A   Overcast
5:54 AM 30.2 °F 23.4 °F 24.8 °F 80% 30.28 in 10.0 mi SW 6.9 mph - N/A   Overcast
6:15 AM 32.0 °F 25.6 °F 23.0 °F 69% 30.29 in 10.0 mi SW 6.9 mph - N/A   Overcast
6:35 AM 30.2 °F 23.4 °F 24.8 °F 80% 30.29 in 10.0 mi SSW 6.9 mph - N/A   Overcast
6:55 AM 30.2 °F 21.9 °F 24.8 °F 80% 30.29 in 10.0 mi SSW 9.2 mph - N/A   Overcast
7:35 AM 30.2 °F 21.9 °F 23.0 °F 75% 30.29 in 10.0 mi South 9.2 mph - N/A   Overcast
7:55 AM 30.2 °F 23.4 °F 23.0 °F 75% 30.29 in 10.0 mi South 6.9 mph - N/A   Mostly Cloudy
8:15 AM 30.2 °F 22.6 °F 23.0 °F 75% 30.29 in 10.0 mi South 8.1 mph - N/A   Scattered Clouds
8:35 AM 30.2 °F 21.9 °F 23.0 °F 75% 30.30 in 10.0 mi South 9.2 mph - N/A   Scattered Clouds
8:50 AM 30.2 °F 21.3 °F 23.0 °F 75% 30.30 in 10.0 mi South 10.4 mph - N/A   Clear
9:11 AM 30.2 °F 19.8 °F 23.0 °F 75% 30.30 in 10.0 mi SSW 13.8 mph 18.4 mph N/A   Clear
9:31 AM 32.0 °F 21.2 °F 23.0 °F 69% 30.30 in 10.0 mi SSW 16.1 mph - N/A   Clear
10:11 AM 32.0 °F 20.8 °F 24.8 °F 75% 30.29 in 10.0 mi SSW 17.3 mph 24.2 mph N/A   Clear
10:31 AM 32.0 °F 19.8 °F 24.8 °F 75% 30.29 in 10.0 mi SSW 20.7 mph 25.3 mph N/A   Clear
10:51 AM 32.0 °F 20.5 °F 26.6 °F 80% 30.28 in 10.0 mi SSW 18.4 mph 24.2 mph N/A   Clear
11:11 AM 32.0 °F 20.1 °F 26.6 °F 80% 30.27 in 10.0 mi SW 19.6 mph 27.6 mph N/A   Clear
11:31 AM 32.0 °F 19.8 °F 26.6 °F 80% 30.25 in 10.0 mi SSW 20.7 mph 25.3 mph N/A   Clear
11:51 AM 32.0 °F 18.9 °F 26.6 °F 80% 30.23 in 10.0 mi SW 24.2 mph 28.8 mph N/A   Clear
12:12 PM 33.8 °F 21.6 °F 26.6 °F 75% 30.21 in 10.0 mi SSW 23.0 mph 28.8 mph N/A   Clear
12:32 PM 33.8 °F 22.2 °F 26.6 °F 75% 30.19 in 10.0 mi SSW 20.7 mph 31.1 mph N/A   Clear
12:52 PM 33.8 °F 20.8 °F 26.6 °F 75% 30.17 in 10.0 mi SSW 26.5 mph 31.1 mph N/A   Clear
1:12 PM 33.8 °F 20.5 °F 26.6 °F 75% 30.16 in 10.0 mi SSW 27.6 mph 34.5 mph N/A   Clear
1:32 PM 33.8 °F 21.3 °F 24.8 °F 70% 30.16 in 10.0 mi SSW 24.2 mph 33.4 mph N/A   Clear
2:12 PM 35.6 °F 24.8 °F 24.8 °F 65% 30.14 in 10.0 mi SSW 19.6 mph 32.2 mph N/A   Clear
2:32 PM 35.6 °F 24.8 °F 24.8 °F 65% 30.14 in 10.0 mi SW 19.6 mph 27.6 mph N/A   Clear
2:52 PM 35.6 °F 24.0 °F 23.0 °F 60% 30.13 in 10.0 mi SW 23.0 mph 31.1 mph N/A   Clear
3:13 PM 35.6 °F 25.2 °F 23.0 °F 60% 30.12 in 10.0 mi SW 18.4 mph 29.9 mph N/A   Clear
3:33 PM 35.6 °F 25.5 °F 24.8 °F 65% 30.13 in 10.0 mi SSW 17.3 mph 26.5 mph N/A   Clear
3:53 PM 35.6 °F 24.5 °F 24.8 °F 65% 30.12 in 10.0 mi SSW 20.7 mph 26.5 mph N/A   Clear
4:13 PM 35.6 °F 25.5 °F 24.8 °F 65% 30.11 in 10.0 mi SSW 17.3 mph 27.6 mph N/A   Clear
4:33 PM 33.8 °F 22.5 °F 24.8 °F 70% 30.11 in 10.0 mi SSW 19.6 mph 25.3 mph N/A   Clear
4:53 PM 33.8 °F 23.2 °F 24.8 °F 70% 30.10 in 10.0 mi SSW 17.3 mph 26.5 mph N/A   Clear
5:13 PM 33.8 °F 22.8 °F 24.8 °F 70% 30.09 in 10.0 mi SSW 18.4 mph 26.5 mph N/A   Clear
5:33 PM 33.8 °F 21.9 °F 23.0 °F 65% 30.08 in 10.0 mi SSW 21.9 mph 27.6 mph N/A   Clear
6:13 PM 32.0 °F 19.5 °F 23.0 °F 69% 30.08 in 10.0 mi SSW 21.9 mph 26.5 mph N/A   Clear
6:34 PM 32.0 °F 20.1 °F 24.8 °F 75% 30.08 in 10.0 mi SSW 19.6 mph 25.3 mph N/A   Clear
6:54 PM 32.0 °F 20.8 °F 23.0 °F 69% 30.08 in 10.0 mi SSW 17.3 mph 25.3 mph N/A   Clear
7:14 PM 32.0 °F 20.5 °F 24.8 °F 75% 30.08 in 10.0 mi SSW 18.4 mph 26.5 mph N/A   Clear
7:34 PM 32.0 °F 20.1 °F 24.8 °F 75% 30.07 in 10.0 mi SSW 19.6 mph 24.2 mph N/A   Clear
7:54 PM 32.0 °F 20.1 °F 24.8 °F 75% 30.07 in 10.0 mi SSW 19.6 mph 23.0 mph N/A   Clear
8:14 PM 32.0 °F 21.2 °F 24.8 °F 75% 30.08 in 10.0 mi SSW 16.1 mph 24.2 mph N/A   Clear
8:34 PM 32.0 °F 20.8 °F 24.8 °F 75% 30.07 in 10.0 mi SSW 17.3 mph - N/A   Clear
8:54 PM 32.0 °F 21.6 °F 24.8 °F 75% 30.06 in 10.0 mi SSW 15.0 mph - N/A   Clear
9:14 PM 32.0 °F 21.2 °F 23.0 °F 69% 30.07 in 10.0 mi SSW 16.1 mph 20.7 mph N/A   Clear
9:34 PM 32.0 °F 21.2 °F 23.0 °F 69% 30.06 in 10.0 mi SSW 16.1 mph 24.2 mph N/A   Clear
9:55 PM 32.0 °F 20.8 °F 23.0 °F 69% 30.07 in 10.0 mi SW 17.3 mph 23.0 mph N/A   Clear
10:15 PM 32.0 °F 21.6 °F 23.0 °F 69% 30.07 in 10.0 mi SSW 15.0 mph - N/A   Clear
10:35 PM 30.2 °F 20.2 °F 23.0 °F 75% 30.07 in 10.0 mi SSW 12.7 mph - N/A   Clear
10:55 PM 30.2 °F 20.2 °F 23.0 °F 75% 30.08 in 10.0 mi SW 12.7 mph - N/A   Clear
11:15 PM 30.2 °F 20.2 °F 23.0 °F 75% 30.08 in 10.0 mi SSW 12.7 mph - N/A   Clear
11:55 PM 30.2 °F 20.2 °F 23.0 °F 75% 30.08 in 10.0 mi SSW 12.7 mph - N/A   Clear